Weather in Silkeborg

Denmark     56°11′00″N   9°32′19″E
temp.,
°C
wind,
m/s
gust,
m/s
humid.,
%
clouds,
%
prec.,
mm/h
press.,
hPa
HPBL,
m
13 april, tue
tue1323:00+2sw61282100 0.0 1019444
02:00+2wsw612885 0.0 1019396
05:00+1wsw511915 0.0 1019277
08:00+3w610848 0.0 1021672
11:00+6w685411 0.0 10221606
14:00+8wnw564223 0.0 10222094
17:00+7nw885072 0.3 10231662
20:00+4wnw710697 0.4 1025889
14 april, wed
wed1423:00+3w5117724 0.0 1025530
02:00+2wnw5118138 0.0 1025437
05:000nw37885 0.0 1026188
08:00+2nnw23825 0.0 1027155
11:00+6e23535 0.0 10281099
14:00+9ene3437100 0.1 10282452
17:00+8ene653510 0.0 10291873
20:00+4ne35511 0.0 103086
15 april, thu
thu1523:00+1ne35674 0.0 103184
02:000nne35645 0.0 103280
05:000nne346061 0.0 103361
08:00+2nne3562100 0.0 1033154
11:00+7nne4653100 0.0 10341036
14:00+8ne564796 0.1 10331676
17:00+8ene5647100 0.0 10321563
20:00+5ne366494 0.0 1033143
16 april, fri
fri1623:00+3n4107398 0.0 1033214
02:00+2nne378288 0.0 1033135
05:00+2nne358976 0.0 103385
08:00+3nne497932 0.0 1033276
11:00+9ne79585 0.0 10321260
14:00+10ne79450 0.0 10311224
17:00+10ne68481 0.0 10311184
20:00+8ne496694 0.0 1031260
17 april, sat
sat1723:00+5nne3108083 0.0 1031227
02:00+4ne387941 0.0 1031147
05:00+2ne388120 0.0 1031167
08:00+5ene497699 0.0 1031367
11:00+8ene5861100 0.0 1030662
14:00+9ene5662100 0.0 1030660
17:00+10ene455694 0.0 1030656
20:00+8ne346751 0.0 1029120